Flugplatz Bienenfarm

Für EDOI sind keine METAR/TAF Berichte vorhanden.
Es werden die Flugwettermeldungen vom Flugplatz Berlin-Tegel International in 38 km Entfernung angezeigt.

Bericht für EDDT

vom 31.05. um 10:50 UTC

Wind 11 kt aus 10° in Böen 21 kt

Sichtweite 10 km oder mehr

gering bewölkt in 4700 ft

Temperatur 21.0°C

Taupunkt 7.0°C

Luftfeuchtigkeit 40%

Luftdruck 1021 hPa

EDDT 311050Z 01011G21KT 310V060 9999 FEW047 21/07 Q1021 TEMPO 01015G25KT

Prognose für EDDT

vom 31.05. um 05:00 UTC

Zwischen 06:00 UTC und 06:00 UTC

Wind 7 kt aus 360°

Sichtweite 10 km oder mehr

keine signifikanten Wettererscheinungen

keine Wolken


Zwischen 06:00 und 09:00 UTC übergehend zu

Wind 12 kt aus 350°

Sichtweite 10 km oder mehr

keine signifikanten Wettererscheinungen

keine Wolken


Zwischen 10:00 UTC und 17:00 UTC zeitweise

Wind 15 kt aus 10° in Böen 25 kt


Zwischen 18:00 und 20:00 UTC übergehend zu

Wind 6 kt aus 20°

Sichtweite 10 km oder mehr

keine signifikanten Wettererscheinungen

keine Wolken

TAF EDDT 310500Z 3106/0106 36007KT CAVOK BECMG 3106/3109 35012KT TEMPO 3110/3117 01015G25KT BECMG 3118/3120 02006KT
Impressum